www.pogodaiklimat.ru

Погода и климат >> Архив погоды >> Австралия >> Квинсленд >> Бердсвилл


ПОГОДА в Бердсвилле

  • Прогноз погоды в Бердсвилле
  • Монитор погоды в Бердсвилле

АРХИВ ПОГОДЫ в Бердсвилле

Время (UTC), дата Ветер
(напр.,м/с)
 
Видим.   Явления Облачность Т
(С)
Тd
(С)
f
(%)
Тe
(С)
Тes
(С)
Комфортность P
(гПа)
Po
(гПа)
Тmin
(С)
Tmax
(С)
R
(мм)
R24
(мм)
S
(см)
20 13.08 штиль 0 н/о н/о +4.2 -2.2 63 +4 +4 1025.4 1019.8
21 13.08 Ю 2 н/о н/о +4.5 -3.3 57 +2 +2 1025.8 1020.2
23 13.08 ЮВ 3 н/о н/о +9.6 -1.7 45 +8 +8 1026.9 1021.2
00 14.08 В 3 н/о н/о +16.1 -0.2 33 +16 +16 1027.1 1021.4
02 14.08 В 5 н/о н/о +20.2 -2.2 22 +20 +20 1025.3 1019.7 +3.8
03 14.08 В 4 н/о н/о +21.1 -2.7 20 +20 +20 1024.0 1018.4
05 14.08 В 3 н/о н/о +22.9 -4.2 16 +21 +21 комфорт 1021.9 1016.3
06 14.08 СВ 2 н/о н/о +22.6 -4.5 16 +21 +21 комфорт 1021.3 1015.7
08 14.08 В 2 н/о н/о +21.9 -4.2 17 +21 +21 комфорт 1021.6 1016.0
09 14.08 штиль 0 н/о н/о +18.6 -5.4 19 +19 +19 1022.1 1016.5
11 14.08 В 3 н/о н/о +14.4 -3.9 28 +14 +14 1023.3 1017.7
12 14.08 В 3 н/о н/о +13.0 -3.3 32 +12 +12 1023.7 1018.1
14 14.08 В 4 н/о н/о +12.3 -3.5 33 +11 +11 1023.2 1017.6 +23.3
15 14.08 В 3 н/о н/о +10.2 -4.2 36 +9 +9 1022.8 1017.2
17 14.08 В 2 н/о н/о +8.0 -4.1 42 +7 +7 1022.3 1016.7
18 14.08 В 3 н/о н/о +6.7 -4.4 45 +5 +5 1022.1 1016.5
20 14.08 В 3 н/о н/о +7.6 -2.7 48 +6 +6 1022.1 1016.5
21 14.08 В 2 н/о н/о +6.7 -2.4 52 +5 +5 1022.6 1017.0
23 14.08 В 3 н/о н/о +13.5 -1.6 35 +13 +13 1023.6 1018.0
00 15.08 СВ 4 н/о н/о +18.6 -1.8 25 +19 +19 1023.8 1018.2
02 15.08 СВ 4 н/о н/о +24.0 -3.3 16 +22 +22 комфорт 1023.0 1017.4 +6.5
03 15.08 СВ 4 н/о н/о +25.0 -5.3 13 +23 +23 комфорт 1021.8 1016.2
05 15.08 СЗ 2 н/о н/о +26.7 -6.2 11 +24 +24 комфорт 1019.4 1013.8
06 15.08 СЗ 3 н/о н/о +27.0 -7.2 10 +24 +24 комфорт 1018.7 1013.1
08 15.08 ЮЗ 3 н/о н/о +25.8 -5.7 12 +23 +23 комфорт 1018.8 1013.2
09 15.08 Ю 3 н/о н/о +21.7 -3.6 18 +21 +21 комфорт 1019.4 1013.8
11 15.08 Ю 3 н/о н/о +16.4 -4.8 23 +16 +16 1020.5 1014.9
12 15.08 ЮВ 4 н/о н/о +16.9 -4.9 22 +17 +17 1020.6 1015.0
14 15.08 ЮВ 2 н/о н/о +14.7 -3.6 28 +15 +15 1020.2 1014.6 +27.7
15 15.08 В 2 н/о н/о +12.3 -5.7 28 +12 +12 1019.9 1014.3
17 15.08 В 2 н/о н/о +10.3 -5.6 32 +10 +10 1019.1 1013.5
18 15.08 В 2 н/о н/о +11.2 -6.2 29 +11 +11 1018.7 1013.1
20 15.08 В 3 н/о н/о +8.7 +1.4 60 +7 +7 1018.8 1013.2
21 15.08 В 3 н/о н/о +8.2 -5.3 38 +7 +7 1019.4 1013.8
23 15.08 СВ 3 н/о н/о +15.9 -2.6 28 +16 +16 1020.1 1014.5
00 16.08 СВ 5 н/о н/о +21.6 -3.0 19 +21 +21 комфорт 1020.1 1014.5
02 16.08 СВ 6 н/о н/о +27.1 -1.7 15 +25 +25 комфорт 1019.3 1013.7 +8.1
03 16.08 З 3 н/о н/о +27.5 -3.3 13 +25 +25 комфорт 1018.5 1012.9
05 16.08 З 5 н/о н/о +28.9 -4.5 11 +26 +26 жарко 1017.3 1011.7
06 16.08 З 5 н/о н/о +28.4 -4.9 11 +25 +25 комфорт 1016.9 1011.3
08 16.08 З 2 н/о н/о +27.1 -5.9 11 +24 +24 комфорт 1017.0 1011.4
09 16.08 ЮЗ 3 н/о н/о +22.6 -4.5 16 +21 +21 комфорт 1017.4 1011.8
11 16.08 ЮВ 2 н/о н/о +18.6 -2.3 24 +19 +19 1018.2 1012.6
12 16.08 ЮВ 2 н/о н/о +16.9 -3.8 24 +17 +17 1018.2 1012.6
14 16.08 Ю 2 н/о н/о +13.2 -4.0 30 +13 +13 1017.8 1012.2 +29.1
15 16.08 ЮВ 2 н/о н/о +14.2 -4.0 28 +14 +14 1017.5 1011.9
17 16.08 ЮВ 3 н/о н/о +11.2 -5.3 31 +10 +10 1016.9 1011.3
18 16.08 ЮВ 3 н/о н/о +11.9 -5.5 29 +11 +11 1016.6 1011.0
20 16.08 ЮВ 2 н/о н/о +8.7 -6.6 33 +8 +8 1017.0 1011.4
21 16.08 ЮВ 2 н/о н/о +8.6 -6.7 33 +8 +8 1017.4 1011.8
23 16.08 ЮВ 4 н/о н/о +16.3 -2.2 28 +16 +16 1018.2 1012.6
00 17.08 СВ 5 н/о н/о +21.9 -0.8 22 +21 +21 комфорт 1018.0 1012.4
02 17.08 СВ 6 н/о н/о +27.8 -0.3 16 +25 +25 комфорт 1016.8 1011.2 +7.9
03 17.08 С 4 н/о н/о +28.4 -4.9 11 +25 +25 комфорт 1015.8 1010.2
05 17.08 С 3 н/о н/о +29.9 -5.0 10 +26 +26 жарко 1014.0 1008.4
06 17.08 С 4 н/о н/о +30.1 -6.2 9 +26 +26 жарко 1013.6 1008.0
08 17.08 штиль 0 н/о н/о +29.5 -6.7 9 +26 +26 жарко 1013.8 1008.2
09 17.08 З 3 н/о н/о +24.9 -6.4 12 +22 +22 комфорт 1014.2 1008.6
11 17.08 СВ 2 н/о н/о +20.0 -1.7 23 +21 +21 комфорт 1015.0 1009.4
12 17.08 В 3 н/о н/о +19.1 -2.5 23 +19 +19 1014.9 1009.3
14 17.08 СВ 3 н/о н/о +16.2 -4.4 24 +16 +16 1014.6 1009.0 +31.0
15 17.08 СВ 4 н/о н/о +15.5 -3.9 26 +15 +15 1014.2 1008.6
17 17.08 СВ 4 н/о н/о +14.5 -5.3 25 +14 +14 1013.2 1007.6
18 17.08 СВ 6 н/о н/о +16.8 -4.4 23 +16 +16 1012.7 1007.1
20 17.08 С 4 н/о н/о +17.3 -4.6 22 +17 +17 1013.5 1007.9
21 17.08 З 4 н/о н/о +17.1 -3.6 24 +17 +17 1015.7 1010.1
23 17.08 ЮЗ 9 н/о н/о +20.1 +2.9 32 +20 +20 1017.4 1011.8
00 18.08 ЮЗ 13 н/о н/о +20.1 +4.2 35 +20 +20 1018.4 1012.8
02 18.08 ЮЗ 11 н/о н/о +21.7 +4.3 32 +22 +22 комфорт 1019.1 1013.5 +13.4
03 18.08 ЮЗ 12 н/о н/о +22.6 +2.7 27 +22 +22 комфорт 1018.6 1013.0
05 18.08 ЮЗ 11 н/о н/о +23.7 +2.0 24 +23 +23 комфорт 1018.1 1012.5
06 18.08 ЮЗ 11 н/о н/о +22.5 +0.4 23 +22 +22 комфорт 1018.0 1012.4
08 18.08 ЮЗ 10 н/о н/о +20.0 -1.2 24 +19 +19 1019.4 1013.8
09 18.08 ЮЗ 7 н/о н/о +17.5 -2.2 26 +17 +17 1020.7 1015.1
11 18.08 ЮЗ 4 н/о н/о +12.2 -3.2 34 +11 +11 1023.0 1017.4
12 18.08 ЮЗ 4 н/о н/о +10.3 -3.4 38 +8 +8 1023.3 1017.7
14 18.08 ЮЗ 4 н/о н/о +9.0 -4.5 38 +7 +7 1024.0 1018.4 +24.0
15 18.08 ЮЗ 4 н/о н/о +8.5 -5.0 38 +6 +6 1024.2 1018.6
17 18.08 ЮЗ 6 н/о н/о +9.2 -3.7 40 +6 +6 1024.5 1018.9
18 18.08 ЮЗ 7 н/о н/о +9.5 -1.5 46 +6 +6 1024.5 1018.9
20 18.08 ЮЗ 5 н/о н/о +7.5 0.0 59 +4 +4 1026.1 1020.5
21 18.08 Ю 6 н/о н/о +7.9 +1.1 62 +4 +4 1027.0 1021.3
23 18.08 Ю 9 н/о н/о +10.8 +2.1 55 +7 +7 1028.9 1023.2
00 19.08 Ю 11 н/о н/о +12.1 +1.7 49 +9 +9 1029.5 1023.8
02 19.08 Ю 9 н/о н/о +14.5 +1.1 40 +12 +12 1029.3 1023.6 +7.4
03 19.08 Ю 9 н/о н/о +16.1 -0.6 32 +15 +15 1028.6 1022.9
05 19.08 Ю 8 н/о н/о +17.2 -1.9 27 +16 +16 1027.4 1021.7
06 19.08 Ю 8 н/о н/о +16.9 -3.2 25 +16 +16 1026.9 1021.2
08 19.08 Ю 7 н/о н/о +15.7 -2.7 28 +14 +14 1027.7 1022.0
09 19.08 Ю 5 н/о н/о +13.9 -2.9 31 +12 +12 1028.4 1022.7
11 19.08 Ю 4 н/о н/о +9.1 -2.8 43 +7 +7 1030.1 1024.4
12 19.08 Ю 4 н/о н/о +8.7 -2.0 47 +6 +6 1030.6 1024.9
14 19.08 Ю 5 н/о н/о +9.6 -2.7 42 +7 +7 1031.0 1025.3 +18.0
15 19.08 Ю 5 н/о н/о +8.8 -3.4 42 +6 +6 1031.0 1025.3
17 19.08 Ю 4 н/о н/о +6.7 -4.1 46 +4 +4 1030.6 1024.9
18 19.08 Ю 4 н/о н/о +5.9 -4.5 47 +3 +3 1030.4 1024.7
20 19.08 Ю 3 н/о н/о +3.2 -4.5 57 -0 -0 1030.9 1025.2
21 19.08 ЮЗ 3 н/о н/о +2.6 -4.4 60 -1 -1 1031.7 1026.0
23 19.08 Ю 5 н/о н/о +9.7 -2.9 41 +7 +7 1033.1 1027.4
00 20.08 ЮВ 6 н/о н/о +13.3 -3.0 32 +11 +11 1033.4 1027.7
02 20.08 Ю 8 н/о н/о +16.8 -2.3 27 +16 +16 1032.4 1026.7 +2.3
03 20.08 Ю 7 н/о н/о +18.2 -2.1 25 +17 +17 1031.5 1025.8
05 20.08 Ю 8 н/о н/о +18.7 -3.4 22 +18 +18 1029.6 1023.9
06 20.08 Ю 9 н/о н/о +19.2 -3.6 21 +18 +18 1028.9 1023.2
08 20.08 Ю 8 н/о н/о +17.9 -4.1 22 +17 +17 1028.9 1023.2
09 20.08 Ю 4 н/о н/о +15.2 -3.6 27 +14 +14 1029.2 1023.5
11 20.08 Ю 4 н/о н/о +11.6 -2.9 36 +10 +10 1029.8 1024.1
12 20.08 Ю 6 н/о н/о +12.7 -2.3 35 +11 +11 1030.1 1024.4
14 20.08 Ю 4 н/о н/о +10.2 -2.1 42 +8 +8 1030.1 1024.4 +20.3
15 20.08 Ю 5 н/о н/о +9.4 -1.6 46 +7 +7 1029.9 1024.2
17 20.08 Ю 3 н/о н/о +7.0 -1.7 54 +4 +4 1028.9 1023.2
18 20.08 Ю 3 н/о н/о +6.3 -1.8 56 +4 +4 1028.5 1022.8

 

Местоположение метеостанции Бердсвилл (Квинсленд, Австралия): широта -25.90 долгота 139.35 высота над уровнем моря 47 м.

В архиве по умолчанию представлена погода в Бердсвилле за последнюю неделю. Архивные данные за месяц целиком и за предыдущие месяцы, начиная с января 2011 года, Вы можете получить, выбрав интересующий диапазон дат из раскрывающегося списка и нажав кнопку "Ввод!".


*Определитесь, кто Вы:
робот инопланетянин человек

Внимание! Время в таблицах - всемирное. Для получения местного времени необходимо прибавить поправку, которая равна 10 ч.

Смотрите также архив погоды в соседних городах и на ближайших метеорологических станциях:

Погода в Мумбе (Южная Австралия, Австралия) (259 км)
Погода в Месторождении Ballera (Квинсленд, Австралия) (298 км)
Погода в Однадатте (Южная Австралия, Австралия) (429 км)
Погода в Марри (Южная Австралия, Австралия) (437 км)
Погода в Фосфат-Хилл (Квинсленд, Австралия) (460 км)
Погода в Джервойсе (Северная территория, Австралия) (461 км)
Погода в Тибообере (Новый Южный Уэльс, Австралия) (476 км)
Погода в Аэропорту Трепелл (Квинсленд, Австралия) (479 км)
Погода в Таргоминде (Квинсленд, Австралия) (499 км)
Погода в Ли-Крике (Южная Австралия, Австралия) (531 км)

Пояснения к столбцам:

Ветер - указаны скорость ветра в м/с - средняя за 10 мин, порывы в срок и между сроками (в фигурных скобках) и направление, откуда дует ветер: С - северный, СВ - северо-восточный, В - восточный, ЮВ - юго-восточный, Ю - южный, ЮЗ - юго-западный, З - западный, СЗ - северо-западный.
Видимость - горизонтальная дальность видимости в метрах или километрах. При видимости от 1 до 10 км при отсутствии осадков обычно наблюдается дымка, при ухудшении видимости до 1 км и менее - туман. В сухую погоду видимость может ухудшаться дымом, пылью или мглою.
Явления - указаны атмосферные явления, наблюдавшиеся в срок или в последний час перед сроком; фигурными скобками обозначены явления, наблюдавшиеся между сроками (за 1-3 часа до срока); квадратными скобками обозначены град или гололедные отложения с указанием их диаметра в мм.
Облачность - указаны через наклонную черту общая и нижняя облачность в баллах и высота нижней границы облаков в метрах; квадратными скобками обозначены формы облаков: Ci - перистые, Cs - перисто-слоистые, Cc - перисто-кучевые, Ac - высококучевые, As - высокослоистые, Sc - слоисто-кучевые, Ns - слоисто-дождевые, Cu - кучевые, Cb - кучево-дождевые. Подробнее классификацию облаков см. в Атласе облаков (PDF).
T - Температура воздуха - температура, измеренная на высоте 2 м над землей.
Td - Температура точки росы - температура, при понижении до которой содержащийся в воздухе водяной пар достигнет насыщения.
f - Относительная влажность воздуха - влажноcть воздуха, измеренная на высоте 2 м над землей.
Te - Эффективная температура - температура, которую ощущает одетый по сезону человек в тени. Характеристика душности погоды. При расчете учитывается влияние влажности воздуха и скорости ветра на теплоощущения человека.
Tes - Эффективная температура на солнце - температура, которую ощущает человек, с поправкой на солнечный нагрев. Характеристика знойности погоды. Зависит от высоты солнца над горизонтом, облачности и скорости ветра. Ночью, в пасмурную погоду, а также при ветре 12 м/с и более поправка равна нулю.
P - Атмосферное давление - приведенное к уровню моря атмосферное давление.
Po - Атмосферное давление - измеренное на уровне метеостанции атмосферное давление.
Tmin - Минимальная температура - минимум температуры воздуха на высоте 2 м над землей.
Tmax - Максимальная температура - максимум температуры воздуха на высоте 2 м над землей.
R - Количество осадков - Количество выпавших осадков за период времени, мм. При наведении курсора мыши на число - период времени, за который выпало указанное количество осадков.
R24 - Количество осадков - Количество выпавших осадков за 24 часа, мм.
S - Снежный покров - Высота снежного покрова, см. При наведении курсора мыши на число - состояние снежного покрова и степень покрытия местности в баллах.